Time,TemperatureF,DewpointF,PressureIn,WindDirection,WindDirectionDegrees,WindSpeedMPH,WindSpeedGustMPH,Humidity,HourlyPrecipIn,Conditions,Clouds,dailyrainin,SoftwareType,DateUTC
2013-05-26 00:01:00,64.0,33.0,29.80,West,267,1.0,2.0,31,0.00,,,0.00,,2013-05-26 08:01:00,
2013-05-26 00:11:00,64.0,33.0,29.80,West,267,1.0,2.0,31,0.00,,,0.00,,2013-05-26 08:11:00,
2013-05-26 00:21:00,60.0,32.0,29.80,West,267,0.0,1.0,35,0.00,,,0.00,,2013-05-26 08:21:00,
2013-05-26 00:32:00,60.0,32.0,29.80,West,267,0.0,1.0,35,0.00,,,0.00,,2013-05-26 08:32:00,
2013-05-26 00:42:00,60.0,32.0,29.80,West,267,0.0,1.0,35,0.00,,,0.00,,2013-05-26 08:42:00,
2013-05-26 00:52:00,54.0,32.0,29.80,West,267,0.0,1.0,43,0.00,,,0.00,,2013-05-26 08:52:00,
2013-05-26 01:01:00,54.0,32.0,29.80,West,267,0.0,1.0,43,0.00,,,0.00,,2013-05-26 09:01:00,
2013-05-26 01:11:00,54.0,32.0,29.80,West,267,0.0,1.0,43,0.00,,,0.00,,2013-05-26 09:11:00,
2013-05-26 01:21:00,52.0,32.0,29.81,West,267,0.0,0.0,46,0.00,,,0.00,,2013-05-26 09:21:00,
2013-05-26 01:33:00,52.0,32.0,29.81,West,267,0.0,0.0,46,0.00,,,0.00,,2013-05-26 09:33:00,
2013-05-26 01:42:00,52.0,32.0,29.81,West,267,0.0,0.0,46,0.00,,,0.00,,2013-05-26 09:42:00,
2013-05-26 01:52:00,50.0,34.0,29.81,West,267,0.0,1.0,53,0.00,,,0.00,,2013-05-26 09:52:00,
2013-05-26 02:02:00,50.0,34.0,29.81,West,267,0.0,1.0,53,0.00,,,0.00,,2013-05-26 10:02:00,
2013-05-26 02:12:00,50.0,34.0,29.81,West,267,0.0,1.0,53,0.00,,,0.00,,2013-05-26 10:12:00,
2013-05-26 02:22:00,48.0,33.0,29.82,West,267,0.0,1.0,55,0.00,,,0.00,,2013-05-26 10:22:00,
2013-05-26 02:32:00,48.0,33.0,29.82,West,267,0.0,1.0,55,0.00,,,0.00,,2013-05-26 10:32:00,
2013-05-26 02:42:00,48.0,33.0,29.82,West,267,0.0,1.0,55,0.00,,,0.00,,2013-05-26 10:42:00,
2013-05-26 02:52:00,48.0,31.0,29.81,West,267,0.0,0.0,52,0.00,,,0.00,,2013-05-26 10:52:00,
2013-05-26 03:02:00,48.0,31.0,29.81,West,267,0.0,0.0,52,0.00,,,0.00,,2013-05-26 11:02:00,
2013-05-26 03:11:00,48.0,31.0,29.81,West,267,0.0,0.0,52,0.00,,,0.00,,2013-05-26 11:11:00,
2013-05-26 03:22:00,47.0,32.0,29.81,West,267,0.0,0.0,55,0.00,,,0.00,,2013-05-26 11:22:00,
2013-05-26 03:32:00,47.0,32.0,29.81,West,267,0.0,0.0,55,0.00,,,0.00,,2013-05-26 11:32:00,
2013-05-26 03:42:00,47.0,32.0,29.81,West,267,0.0,0.0,55,0.00,,,0.00,,2013-05-26 11:42:00,
2013-05-26 03:52:00,46.0,32.0,29.82,West,267,0.0,0.0,57,0.00,,,0.00,,2013-05-26 11:52:00,
2013-05-26 04:01:00,46.0,32.0,29.82,West,267,0.0,0.0,57,0.00,,,0.00,,2013-05-26 12:01:00,
2013-05-26 04:11:00,46.0,32.0,29.82,West,267,0.0,0.0,57,0.00,,,0.00,,2013-05-26 12:11:00,
2013-05-26 04:21:00,46.0,31.0,29.83,SSW,200,0.0,0.0,56,0.00,,,0.00,,2013-05-26 12:21:00,
2013-05-26 04:32:00,46.0,31.0,29.83,SSW,200,0.0,0.0,56,0.00,,,0.00,,2013-05-26 12:32:00,
2013-05-26 04:41:00,46.0,31.0,29.83,SSW,200,0.0,0.0,56,0.00,,,0.00,,2013-05-26 12:41:00,
2013-05-26 04:52:00,44.0,31.0,29.83,SSW,200,0.0,0.0,60,0.00,,,0.00,,2013-05-26 12:52:00,
2013-05-26 05:02:00,44.0,31.0,29.83,SSW,200,0.0,0.0,60,0.00,,,0.00,,2013-05-26 13:02:00,
2013-05-26 05:11:00,44.0,31.0,29.83,SSW,200,0.0,0.0,60,0.00,,,0.00,,2013-05-26 13:11:00,
2013-05-26 05:21:00,43.0,31.0,29.83,SSW,200,0.0,0.0,62,0.00,,,0.00,,2013-05-26 13:21:00,
2013-05-26 05:32:00,43.0,31.0,29.83,SSW,200,0.0,0.0,62,0.00,,,0.00,,2013-05-26 13:32:00,
2013-05-26 05:42:00,43.0,31.0,29.83,SSW,200,0.0,0.0,62,0.00,,,0.00,,2013-05-26 13:42:00,
2013-05-26 05:52:00,43.0,31.0,29.83,SSW,200,0.0,0.0,63,0.00,,,0.00,,2013-05-26 13:52:00,
2013-05-26 06:02:00,43.0,31.0,29.83,SSW,200,0.0,0.0,63,0.00,,,0.00,,2013-05-26 14:02:00,
2013-05-26 06:11:00,43.0,31.0,29.83,SSW,200,0.0,0.0,63,0.00,,,0.00,,2013-05-26 14:11:00,
2013-05-26 06:21:00,43.0,31.0,29.83,SSW,200,0.0,0.0,63,0.00,,,0.00,,2013-05-26 14:21:00,
2013-05-26 06:32:00,43.0,31.0,29.83,SSW,200,0.0,0.0,63,0.00,,,0.00,,2013-05-26 14:32:00,
2013-05-26 06:41:00,43.0,31.0,29.83,SSW,200,0.0,0.0,63,0.00,,,0.00,,2013-05-26 14:41:00,
2013-05-26 06:51:00,44.0,32.0,29.83,SSW,200,0.0,0.0,63,0.00,,,0.00,,2013-05-26 14:51:00,
2013-05-26 07:01:00,44.0,32.0,29.83,SSW,200,0.0,0.0,63,0.00,,,0.00,,2013-05-26 15:01:00,
2013-05-26 07:12:00,44.0,32.0,29.83,SSW,200,0.0,0.0,63,0.00,,,0.00,,2013-05-26 15:12:00,
2013-05-26 07:22:00,46.0,33.0,29.83,SSW,200,0.0,0.0,61,0.00,,,0.00,,2013-05-26 15:22:00,
2013-05-26 07:33:00,46.0,33.0,29.83,SSW,200,0.0,0.0,61,0.00,,,0.00,,2013-05-26 15:33:00,
2013-05-26 07:43:00,46.0,33.0,29.83,SSW,200,0.0,0.0,61,0.00,,,0.00,,2013-05-26 15:43:00,
2013-05-26 07:53:00,50.0,34.0,29.84,SSW,200,0.0,0.0,54,0.00,,,0.00,,2013-05-26 15:53:00,
2013-05-26 08:03:00,50.0,34.0,29.84,SSW,200,0.0,0.0,54,0.00,,,0.00,,2013-05-26 16:03:00,
2013-05-26 08:12:00,50.0,34.0,29.84,SSW,200,0.0,0.0,54,0.00,,,0.00,,2013-05-26 16:12:00,
2013-05-26 08:23:00,51.0,34.0,29.83,SSW,200,0.0,0.0,53,0.00,,,0.00,,2013-05-26 16:23:00,
2013-05-26 08:33:00,51.0,34.0,29.83,SSW,200,0.0,0.0,53,0.00,,,0.00,,2013-05-26 16:33:00,
2013-05-26 08:42:00,51.0,34.0,29.83,SSW,200,0.0,0.0,53,0.00,,,0.00,,2013-05-26 16:42:00,
2013-05-26 08:52:00,55.0,36.0,29.83,SSW,200,0.0,2.0,48,0.00,,,0.00,,2013-05-26 16:52:00,
2013-05-26 09:02:00,55.0,36.0,29.83,SSW,200,0.0,2.0,48,0.00,,,0.00,,2013-05-26 17:02:00,
2013-05-26 09:11:00,55.0,36.0,29.83,SSW,200,0.0,2.0,48,0.00,,,0.00,,2013-05-26 17:11:00,
2013-05-26 09:22:00,56.0,36.0,29.83,SSE,160,0.0,3.0,47,0.00,,,0.00,,2013-05-26 17:22:00,
2013-05-26 09:32:00,56.0,36.0,29.83,SSE,160,0.0,3.0,47,0.00,,,0.00,,2013-05-26 17:32:00,
2013-05-26 09:42:00,56.0,36.0,29.83,SSE,160,0.0,3.0,47,0.00,,,0.00,,2013-05-26 17:42:00,
2013-05-26 09:52:00,59.0,36.0,29.83,South,176,0.0,3.0,42,0.00,,,0.00,,2013-05-26 17:52:00,
2013-05-26 10:01:00,59.0,36.0,29.83,South,176,0.0,3.0,42,0.00,,,0.00,,2013-05-26 18:01:00,
2013-05-26 10:12:00,59.0,36.0,29.83,South,176,0.0,3.0,42,0.00,,,0.00,,2013-05-26 18:12:00,
2013-05-26 10:21:00,61.0,36.0,29.83,South,191,0.0,3.0,40,0.00,,,0.00,,2013-05-26 18:21:00,
2013-05-26 10:31:00,61.0,36.0,29.83,South,191,0.0,3.0,40,0.00,,,0.00,,2013-05-26 18:31:00,
2013-05-26 10:42:00,61.0,36.0,29.83,South,191,0.0,3.0,40,0.00,,,0.00,,2013-05-26 18:42:00,
2013-05-26 10:52:00,64.0,36.0,29.83,SSW,202,1.0,5.0,35,0.00,,,0.00,,2013-05-26 18:52:00,
2013-05-26 11:01:00,64.0,36.0,29.83,SSW,202,1.0,5.0,35,0.00,,,0.00,,2013-05-26 19:01:00,
2013-05-26 11:11:00,64.0,36.0,29.83,SSW,202,1.0,5.0,35,0.00,,,0.00,,2013-05-26 19:11:00,
2013-05-26 11:21:00,67.0,37.0,29.82,SSE,164,1.0,5.0,33,0.00,,,0.00,,2013-05-26 19:21:00,
2013-05-26 11:32:00,67.0,37.0,29.82,SSE,164,1.0,5.0,33,0.00,,,0.00,,2013-05-26 19:32:00,
2013-05-26 11:42:00,67.0,37.0,29.82,SSE,164,1.0,5.0,33,0.00,,,0.00,,2013-05-26 19:42:00,
2013-05-26 11:52:00,70.0,36.0,29.82,SSE,160,1.0,4.0,29,0.00,,,0.00,,2013-05-26 19:52:00,
2013-05-26 12:02:00,70.0,36.0,29.82,SSE,160,1.0,4.0,29,0.00,,,0.00,,2013-05-26 20:02:00,
2013-05-26 12:11:00,70.0,36.0,29.82,SSE,160,1.0,4.0,29,0.00,,,0.00,,2013-05-26 20:11:00,
2013-05-26 12:21:00,71.0,34.0,29.80,SSE,160,1.0,5.0,26,0.00,,,0.00,,2013-05-26 20:21:00,
2013-05-26 12:32:00,71.0,34.0,29.80,SSE,160,1.0,5.0,26,0.00,,,0.00,,2013-05-26 20:32:00,
2013-05-26 12:41:00,71.0,34.0,29.80,SSE,160,1.0,5.0,26,0.00,,,0.00,,2013-05-26 20:41:00,
2013-05-26 12:52:00,74.0,36.0,29.80,ESE,119,1.0,8.0,25,0.00,,,0.00,,2013-05-26 20:52:00,
2013-05-26 13:01:00,74.0,36.0,29.80,ESE,119,1.0,8.0,25,0.00,,,0.00,,2013-05-26 21:01:00,
2013-05-26 13:11:00,74.0,36.0,29.80,ESE,119,1.0,8.0,25,0.00,,,0.00,,2013-05-26 21:11:00,
2013-05-26 13:22:00,75.0,35.0,29.79,ESE,122,1.0,4.0,23,0.00,,,0.00,,2013-05-26 21:22:00,
2013-05-26 13:33:00,75.0,35.0,29.79,ESE,122,1.0,4.0,23,0.00,,,0.00,,2013-05-26 21:33:00,
2013-05-26 13:43:00,75.0,35.0,29.79,ESE,122,1.0,4.0,23,0.00,,,0.00,,2013-05-26 21:43:00,
2013-05-26 13:53:00,77.0,35.0,29.79,SE,126,2.0,5.0,22,0.00,,,0.00,,2013-05-26 21:53:00,
2013-05-26 14:02:00,77.0,35.0,29.79,SE,126,2.0,5.0,22,0.00,,,0.00,,2013-05-26 22:02:00,
2013-05-26 14:12:00,77.0,35.0,29.79,SE,126,2.0,5.0,22,0.00,,,0.00,,2013-05-26 22:12:00,
2013-05-26 14:23:00,78.0,37.0,29.78,East,94,1.0,4.0,23,0.00,,,0.00,,2013-05-26 22:23:00,
2013-05-26 14:33:00,78.0,37.0,29.78,East,94,1.0,4.0,23,0.00,,,0.00,,2013-05-26 22:33:00,
2013-05-26 14:42:00,78.0,36.0,29.77,South,190,2.0,6.0,22,0.00,,,0.00,,2013-05-26 22:42:00,
2013-05-26 14:53:00,78.0,36.0,29.77,South,190,2.0,6.0,22,0.00,,,0.00,,2013-05-26 22:53:00,
2013-05-26 15:02:00,78.0,36.0,29.77,South,190,2.0,6.0,22,0.00,,,0.00,,2013-05-26 23:02:00,
2013-05-26 15:11:00,78.0,36.0,29.77,South,190,2.0,6.0,22,0.00,,,0.00,,2013-05-26 23:11:00,
2013-05-26 15:22:00,79.0,36.0,29.77,SSW,205,1.0,6.0,21,0.00,,,0.00,,2013-05-26 23:22:00,
2013-05-26 15:32:00,79.0,36.0,29.77,SSW,205,1.0,6.0,21,0.00,,,0.00,,2013-05-26 23:32:00,
2013-05-26 15:43:00,79.0,36.0,29.77,SSW,205,1.0,6.0,21,0.00,,,0.00,,2013-05-26 23:43:00,
2013-05-26 15:51:00,78.0,37.0,29.76,SSW,199,3.0,9.0,23,0.00,,,0.00,,2013-05-26 23:51:00,
2013-05-26 16:02:00,78.0,37.0,29.76,SSW,199,3.0,9.0,23,0.00,,,0.00,,2013-05-27 00:02:00,
2013-05-26 16:11:00,78.0,37.0,29.76,SSW,199,3.0,9.0,23,0.00,,,0.00,,2013-05-27 00:11:00,
2013-05-26 16:21:00,78.0,37.0,29.76,ESE,123,1.0,7.0,23,0.00,,,0.00,,2013-05-27 00:21:00,
2013-05-26 16:31:00,78.0,37.0,29.76,ESE,123,1.0,7.0,23,0.00,,,0.00,,2013-05-27 00:31:00,
2013-05-26 16:41:00,78.0,37.0,29.76,ESE,123,1.0,7.0,23,0.00,,,0.00,,2013-05-27 00:41:00,
2013-05-26 16:52:00,79.0,38.0,29.76,SSW,198,3.0,5.0,23,0.00,,,0.00,,2013-05-27 00:52:00,
2013-05-26 17:01:00,79.0,38.0,29.76,SSW,198,3.0,5.0,23,0.00,,,0.00,,2013-05-27 01:01:00,
2013-05-26 17:11:00,79.0,38.0,29.76,SSW,198,3.0,5.0,23,0.00,,,0.00,,2013-05-27 01:11:00,
2013-05-26 17:22:00,78.0,37.0,29.75,NW,315,0.0,6.0,23,0.00,,,0.00,,2013-05-27 01:22:00,
2013-05-26 17:31:00,78.0,37.0,29.75,NW,315,0.0,6.0,23,0.00,,,0.00,,2013-05-27 01:31:00,
2013-05-26 17:42:00,78.0,37.0,29.75,NW,315,0.0,6.0,23,0.00,,,0.00,,2013-05-27 01:42:00,
2013-05-26 17:52:00,79.0,38.0,29.75,SSW,194,3.0,7.0,23,0.00,,,0.00,,2013-05-27 01:52:00,
2013-05-26 18:01:00,79.0,38.0,29.75,SSW,194,3.0,7.0,23,0.00,,,0.00,,2013-05-27 02:01:00,
2013-05-26 18:11:00,79.0,38.0,29.75,SSW,194,3.0,7.0,23,0.00,,,0.00,,2013-05-27 02:11:00,
2013-05-26 18:21:00,79.0,37.0,29.75,South,182,3.0,4.0,22,0.00,,,0.00,,2013-05-27 02:21:00,
2013-05-26 18:32:00,79.0,37.0,29.75,South,182,3.0,4.0,22,0.00,,,0.00,,2013-05-27 02:32:00,
2013-05-26 18:42:00,79.0,37.0,29.75,South,182,3.0,4.0,22,0.00,,,0.00,,2013-05-27 02:42:00,
2013-05-26 18:52:00,78.0,37.0,29.74,SW,231,1.0,3.0,23,0.00,,,0.00,,2013-05-27 02:52:00,
2013-05-26 19:02:00,78.0,37.0,29.74,SW,231,1.0,3.0,23,0.00,,,0.00,,2013-05-27 03:02:00,
2013-05-26 19:11:00,78.0,37.0,29.74,SW,231,1.0,3.0,23,0.00,,,0.00,,2013-05-27 03:11:00,
2013-05-26 19:21:00,78.0,37.0,29.73,South,176,1.0,7.0,23,0.00,,,0.00,,2013-05-27 03:21:00,
2013-05-26 19:33:00,78.0,37.0,29.73,South,176,1.0,7.0,23,0.00,,,0.00,,2013-05-27 03:33:00,
2013-05-26 19:42:00,78.0,37.0,29.73,South,176,1.0,7.0,23,0.00,,,0.00,,2013-05-27 03:42:00,
2013-05-26 19:53:00,77.0,36.0,29.73,South,188,1.0,4.0,23,0.00,,,0.00,,2013-05-27 03:53:00,
2013-05-26 20:02:00,77.0,36.0,29.73,South,188,1.0,4.0,23,0.00,,,0.00,,2013-05-27 04:02:00,
2013-05-26 20:12:00,77.0,36.0,29.73,South,188,1.0,4.0,23,0.00,,,0.00,,2013-05-27 04:12:00,
2013-05-26 20:22:00,76.0,38.0,29.73,South,188,0.0,1.0,25,0.00,,,0.00,,2013-05-27 04:22:00,
2013-05-26 20:33:00,76.0,38.0,29.73,South,188,0.0,1.0,25,0.00,,,0.00,,2013-05-27 04:33:00,
2013-05-26 20:42:00,77.0,38.0,29.74,South,188,0.0,2.0,25,0.00,,,0.00,,2013-05-27 04:42:00,
2013-05-26 20:52:00,77.0,38.0,29.74,South,188,0.0,2.0,25,0.00,,,0.00,,2013-05-27 04:52:00,
2013-05-26 21:02:00,77.0,38.0,29.74,South,188,0.0,2.0,25,0.00,,,0.00,,2013-05-27 05:02:00,
2013-05-26 21:12:00,77.0,38.0,29.74,South,188,0.0,2.0,25,0.00,,,0.00,,2013-05-27 05:12:00,
2013-05-26 21:22:00,76.0,39.0,29.75,SE,126,1.0,6.0,26,0.00,,,0.00,,2013-05-27 05:22:00,
2013-05-26 21:32:00,76.0,39.0,29.75,SE,126,1.0,6.0,26,0.00,,,0.00,,2013-05-27 05:32:00,
2013-05-26 21:42:00,76.0,39.0,29.75,SE,126,1.0,6.0,26,0.00,,,0.00,,2013-05-27 05:42:00,
2013-05-26 21:52:00,74.0,40.0,29.75,SSW,195,0.0,1.0,29,0.00,,,0.00,,2013-05-27 05:52:00,
2013-05-26 22:01:00,74.0,40.0,29.75,SSW,195,0.0,1.0,29,0.00,,,0.00,,2013-05-27 06:01:00,
2013-05-26 22:11:00,74.0,40.0,29.75,SSW,195,0.0,1.0,29,0.00,,,0.00,,2013-05-27 06:11:00,
2013-05-26 22:21:00,71.0,40.0,29.75,SSW,195,0.0,0.0,32,0.00,,,0.00,,2013-05-27 06:21:00,
2013-05-26 22:32:00,71.0,40.0,29.75,SSW,195,0.0,0.0,32,0.00,,,0.00,,2013-05-27 06:32:00,
2013-05-26 22:41:00,71.0,40.0,29.75,SSW,195,0.0,0.0,32,0.00,,,0.00,,2013-05-27 06:41:00,
2013-05-26 22:52:00,69.0,41.0,29.76,SSW,196,0.0,0.0,36,0.00,,,0.00,,2013-05-27 06:52:00,
2013-05-26 23:02:00,69.0,41.0,29.76,SSW,196,0.0,0.0,36,0.00,,,0.00,,2013-05-27 07:02:00,
2013-05-26 23:11:00,69.0,41.0,29.76,SSW,196,0.0,0.0,36,0.00,,,0.00,,2013-05-27 07:11:00,
2013-05-26 23:21:00,68.0,42.0,29.76,SSW,196,0.0,0.0,39,0.00,,,0.00,,2013-05-27 07:21:00,
2013-05-26 23:31:00,68.0,42.0,29.76,SSW,196,0.0,0.0,39,0.00,,,0.00,,2013-05-27 07:31:00,
2013-05-26 23:41:00,68.0,42.0,29.76,SSW,196,0.0,0.0,39,0.00,,,0.00,,2013-05-27 07:41:00,
2013-05-26 23:52:00,65.0,43.0,29.76,SSW,195,0.0,0.0,44,0.00,,,0.00,,2013-05-27 07:52:00,